Flag for U.S.A. Weather past 2 weeks in Olympia, Washington, U.S.A.

Now
69 °F

Partly sunny.


Feels Like: 69 °F
Forecast: 54 / 68 °F
Wind: 13 mph from West

Location: Olympia Airport

Current Time: Sep 2, 2014 at 1:34:06 PM

Latest Report: Sep 2, 2014 at 12:54 PM


Visibility: 10 mi

Pressure: 29.90 "Hg

Humidity: 47%

Dew point: 48 °F

Location of OlympiaLocation

Historic Weather in Olympia — Graph

°F

Olympia temperature yesterday

Maximum temperature yesterday: 75 °F (at 3:54 PM)
Minimum temperature yesterday: 52 °F (at 12:54 AM)
Average temperature yesterday: 62 °F

Past Weeks' High & Low Weather Summary

 TemperatureHumidityPressure
High90 °F (Aug 26, 4:54 PM)100% (Aug 22, 7:54 AM)30.16 "Hg (Aug 22, 7:54 AM)
Low45 °F (Aug 22, 5:54 AM)24% (Aug 26, 3:54 PM)29.80 "Hg (Aug 19, 4:54 PM)
Average65 °F71%29.99 "Hg
* Reported Aug 18 11:54 AM — Sep 2 11:54 AM, Olympia, Weather by CustomWeather, © 2014

Note: Actual official high and low records may vary slightly from our data, if they occured in-between our weather recording intervals... More about our weather records

Advertising

Olympia weather history for previous 24 hours

 ConditionsComfort  
Time TempWeatherWind HumidityBarometerVisibility
11:54 AM
Sep 2
69 °FScattered clouds.5 mph51%29.91 "Hg10 mi
10:54 AM63 °FPartly sunny.8 mph73%29.93 "Hg10 mi
9:54 AM60 °FMore clouds than sun.10 mph80%29.94 "Hg10 mi
8:54 AM58 °FMostly cloudy.5 mph93%29.95 "Hg10 mi
7:56 AM57 °FLow clouds.7 mph93%29.95 "Hg10 mi
6:54 AM56 °FOvercast.No wind93%29.95 "Hg8 mi
5:54 AM56 °FLow clouds.3 mph97%29.95 "Hg8 mi
4:54 AM56 °FLow clouds.No wind97%29.96 "Hg8 mi
3:54 AM55 °FLow clouds.3 mph96%29.96 "Hg10 mi
2:54 AM53 °FMostly cloudy.No wind96%29.97 "Hg10 mi
1:54 AM54 °FClear.No wind97%29.98 "Hg10 mi
12:54 AM53 °FClear.No wind93%29.98 "Hg10 mi
11:54 PM
Sep 1
57 °FClear.No wind93%29.99 "Hg10 mi
10:54 PM58 °FClear.7 mph90%29.99 "Hg10 mi
9:54 PM59 °FClear.3 mph87%30.00 "Hg10 mi
8:54 PM63 °FClear.No wind78%30.00 "Hg10 mi
7:54 PM67 °FSunny.3 mph66%29.99 "Hg10 mi
6:54 PM72 °FSunny.6 mph57%30.00 "Hg10 mi
5:54 PM75 °FPartly sunny.6 mph52%30.01 "Hg10 mi
4:54 PM73 °FPartly sunny.5 mph53%30.02 "Hg10 mi
3:54 PM75 °FOvercast.7 mph48%30.03 "Hg10 mi
2:54 PM73 °FBroken clouds.3 mph50%30.03 "Hg10 mi
1:54 PM72 °FPartly sunny.5 mph49%30.06 "Hg10 mi
Weather by CustomWeather, © 2014

See weather overviewHow to use our weather pages